SCP
0 0 0 0 0 1 1 1 1 1 1 1 1 1 0 0 0 0 0 0 0 0 0 0 0 0 0 0 0 0 0 0 0 0 0 0 0 0 0 0 0 0 0
0 0 0 0 1 1 1 1 1 1 1 1 1 1 1 0 0 0 0 0 0 0 0 0 0 0 0 0 0 0 0 0 0 0 0 0 0 0 0 0 0 0 0
0 0 0 1 1 1 1 1 1 1 1 1 1 1 1 1 0 0 0 0 0 0 0 0 0 0 0 0 0 0 0 0 0 0 0 0 0 0 0 0 0 0 0
0 0 0 0 0 0 1 1 1 1 1 1 1 1 1 1 1 1 0 0 0 0 0 0 0 0 0 0 0 0 0 0 0 0 0 0 0 0 0 0 0 0 0
0 0 0 0 0 0 1 1 1 1 1 1 1 1 1 1 1 1 1 0 0 0 0 0 0 0 0 0 0 0 0 0 0 0 0 0 0 0 0 0 0 0 0
0 0 0 0 0 0 1 1 1 1 1 1 1 1 1 1 1 1 1 0 0 0 0 0 0 0 0 0 0 0 0 0 0 0 0 0 0 0 0 0 0 0 0
0 0 0 0 1 1 1 1 1 1 1 1 1 1 1 1 1 1 1 0 0 0 0 0 0 0 0 0 0 0 0 0 0 0 0 0 0 0 0 0 0 0 0
0 0 0 1 1 1 1 1 1 1 1 1 1 1 1 1 1 1 1 1 0 0 0 0 0 0 0 0 0 0 0 0 0 0 0 0 0 0 0 0 0 0 0
1 1 1 1 1 1 1 1 1 1 1 1 1 1 1 1 1 1 1 1 0 0 0 0 0 0 0 0 0 0 0 0 0 0 0 0 0 0 0 0 0 0 0
1 1 1 1 1 1 1 1 1 1 1 1 1 1 1 1 1 1 1 1 0 0 0 0 0 0 0 0 0 0 0 0 0 0 0 0 0 0 0 0 0 0 0
1 1 1 1 1 1 1 1 1 1 1 1 1 1 1 1 1 1 1 1 0 0 0 0 0 0 0 0 0 0 0 0 0 0 0 0 0 0 0 0 0 0 0
1 1 1 1 1 1 1 1 1 1 1 1 1 1 1 1 1 1 1 1 1 0 0 0 0 0 0 0 0 0 0 0 0 0 0 0 0 0 0 0 0 0 0
1 1 1 1 1 1 1 1 1 1 1 1 1 1 1 1 1 1 1 1 1 0 0 0 0 0 0 0 0 0 0 0 0 0 0 0 0 0 0 0 0 0 0
1 1 1 1 1 1 1 1 1 1 1 1 1 1 1 1 1 1 1 1 1 0 0 0 0 0 0 0 0 0 0 0 0 0 0 0 0 0 0 0 0 0 0
0 0 1 1 1 1 1 1 1 1 1 1 1 1 1 1 1 1 1 1 1 1 0 0 1 1 0 0 0 0 0 0 0 0 0 0 0 0 0 0 0 0 0
0 0 0 0 0 0 0 0 0 1 1 1 1 0 1 1 1 1 1 1 1 1 1 1 1 1 0 0 0 0 0 0 0 0 0 0 0 0 0 0 0 0 0
0 0 0 0 1 1 1 1 0 1 1 0 0 0 0 1 1 1 1 1 1 1 1 1 1 1 0 0 0 0 0 0 0 0 0 0 0 0 0 0 0 0 0
0 0 0 1 1 1 1 1 1 1 1 0 0 0 0 0 1 1 1 1 1 1 1 1 1 1 0 0 0 0 0 0 0 0 0 0 0 0 0 0 0 0 0
0 0 0 1 1 1 1 1 1 1 1 0 0 0 0 0 1 1 1 1 1 1 1 1 1 1 0 0 0 0 0 0 0 0 0 0 0 0 0 0 0 0 0
0 0 0 1 1 1 1 1 1 1 0 0 0 0 0 0 1 1 1 1 1 1 1 1 1 1 0 0 0 0 0 0 0 0 0 0 0 0 0 0 0 0 0
0 0 0 1 1 1 1 1 1 1 0 0 0 0 0 1 1 1 1 1 1 1 1 1 1 1 0 0 0 0 0 0 0 0 0 0 0 0 0 0 0 0 0
0 0 0 0 0 0 0 0 1 0 0 0 0 0 0 1 1 1 1 1 1 1 1 1 1 1 0 0 0 0 0 0 0 0 0 0 0 0 0 0 0 0 0
0 0 0 0 0 0 0 0 0 0 0 0 0 0 0 0 1 1 1 1 1 1 1 1 1 1 0 0 0 0 0 0 0 0 0 0 0 0 0 0 0 0 0
0 0 0 0 0 0 0 0 0 0 0 0 0 0 0 0 0 0 0 0 1 1 1 1 0 0 0 0 0 0 0 0 0 0 0 0 0 0 0 0 0 0 0
0 0 0 0 0 0 0 0 0 0 0 0 0 0 0 0 0 0 0 0 0 0 0 0 0 0 0 0 0 0 0 0 0 0 0 0 0 0 0 0 0 0 0
0 0 0 0 0 0 0 0 0 0 0 0 0 0 0 0 0 0 0 0 0 0 0 0 0 0 0 0 0 0 0 0 0 0 0 0 0 0 0 0 0 0 0
Wind_Speed
5 5 6 7 7 7 7 8 9 8 7 6 6 5 5 4 3 3 3 2 2 3 2 2 3 1 1 1 1 1 2 1 0 2 1 2 1 1 1 1 2 2 2
5 5 5 6 7 7 7 8 8 8 8 6 5 4 4 4 3 2 3 2 2 3 3 2 2 2 1 1 1 1 1 0 1 3 2 1 3 2 1 0 1 2 2
5 5 5 5 6 7 7 6 7 7 7 7 6 5 4 4 4 3 3 2 3 3 2 2 1 1 2 2 1 1 2 1 1 1 3 3 1 0 2 0 1 1 2
4 5 5 5 5 6 7 6 6 7 7 7 7 7 6 5 4 3 3 3 3 3 3 2 2 1 1 1 2 1 2 2 1 1 1 3 3 3 1 1 0 1 1
4 4 4 5 5 5 5 6 6 6 7 7 7 7 6 5 4 4 4 3 3 3 3 3 2 2 1 1 0 0 2 2 2 1 1 1 2 3 3 2 1 1 1
4 4 3 4 4 5 5 5 6 6 6 7 7 7 6 5 5 5 5 4 4 3 3 3 2 2 1 2 1 1 2 1 2 2 2 2 2 2 2 2 2 2 1
3 4 4 3 4 5 5 5 5 6 6 7 7 7 7 7 6 6 5 4 4 3 3 2 2 2 2 2 1 2 1 1 2 2 2 2 2 2 3 3 3 3 2
2 3 3 4 4 4 5 5 5 5 5 6 6 6 7 6 5 5 4 4 3 3 4 3 3 3 3 3 2 2 2 1 2 2 2 2 2 2 3 3 4 3 2
2 2 2 3 4 4 4 5 5 5 4 5 6 6 6 5 4 5 5 4 3 3 4 4 4 4 3 3 3 2 3 2 3 2 2 3 2 3 2 3 4 4 4
1 1 2 3 3 4 4 5 5 5 5 5 5 5 6 5 5 5 4 4 4 3 4 4 4 4 4 4 4 4 2 3 2 2 2 3 3 2 2 3 3 3 4
2 2 2 2 3 3 4 5 4 4 4 4 4 5 6 7 7 6 6 5 5 5 5 5 5 5 5 5 4 4 3 4 3 3 3 3 3 3 3 3 3 3 4
2 2 2 3 3 3 3 4 4 4 4 4 5 5 5 6 6 6 6 6 5 5 5 5 5 5 5 5 5 5 4 4 4 4 4 4 3 4 4 3 4 3 3
2 2 2 2 2 2 2 3 3 3 3 3 4 4 5 5 6 6 6 6 6 6 6 6 5 5 5 5 5 5 5 5 5 4 4 4 4 5 4 4 4 4 4
2 2 1 1 1 0 1 2 2 2 3 3 3 4 4 5 6 6 6 6 6 6 6 6 6 6 6 6 6 6 6 5 5 5 5 5 5 5 5 5 5 4 5
2 2 1 1 1 1 1 1 1 2 2 3 3 3 3 4 5 5 6 6 6 6 5 5 5 5 5 4 4 5 6 5 5 5 5 5 4 4 5 5 5 5 5
2 2 1 1 1 2 2 2 2 1 2 2 3 3 3 4 4 5 6 6 6 6 5 5 5 5 3 2 2 4 5 5 5 5 5 5 5 5 7 7 7 7 7
2 2 2 1 2 2 2 2 2 2 2 3 3 3 3 4 4 5 6 6 6 6 6 5 5 4 3 3 3 4 5 5 4 4 4 5 3 3 5 5 7 8 9
2 2 2 2 2 2 2 2 3 3 3 3 3 3 3 3 3 4 5 6 5 5 5 5 5 4 3 5 4 4 6 5 5 5 5 5 5 3 4 5 5 6 5
2 2 2 2 2 2 2 3 3 3 3 3 3 3 3 3 3 4 4 5 5 5 5 5 5 4 4 5 5 5 5 5 5 5 5 5 5 1 2 5 5 5 4
2 2 1 1 1 2 2 3 4 3 3 3 3 3 3 3 4 4 4 3 4 5 5 5 4 4 4 5 5 6 5 5 5 5 4 3 3 1 3 5 5 5 4
2 2 1 1 1 1 2 3 3 3 3 3 3 3 3 4 4 4 3 3 4 4 4 4 4 4 4 6 7 6 5 5 5 4 4 2 3 3 4 6 5 4 4
2 2 1 1 1 1 2 2 2 2 2 3 3 3 3 4 3 4 3 4 4 5 5 5 5 4 5 5 6 7 7 6 5 4 3 1 3 4 5 5 4 4 5
2 2 2 1 1 1 2 2 2 2 3 3 3 3 3 3 3 3 3 4 4 4 4 4 4 3 3 4 7 8 8 7 6 4 2 2 3 5 5 6 6 6 5
3 2 2 1 1 1 1 2 1 2 2 3 3 3 3 3 3 3 3 3 3 4 4 3 3 3 2 2 3 4 5 7 6 4 3 5 7 6 4 4 5 5 4
3 3 2 2 2 1 2 2 1 1 2 3 3 3 3 3 3 3 2 3 2 1 3 3 3 3 3 0 1 2 2 2 2 3 4 4 3 4 3 3 3 4 4
3 3 3 2 2 1 2 2 1 1 2 3 3 3 3 2 3 2 2 1 1 1 2 2 4 3 1 1 2 2 3 3 3 5 5 4 4 4 4 4 4 4 4
Wind_Direction
179 173 175 175 175 172 174 181 183 175 178 180 181 179 177 173 165 157 145 153 166 165 186 162 151 194 148 184 197 199 174 198 230 250 220 178 165 76 52 13 359 9 351
176 169 172 174 179 177 179 181 184 180 185 181 183 182 180 172 162 158 141 164 171 182 175 178 172 162 157 168 200 231 264 227 285 289 276 235 180 184 114 87 66 358 342
191 182 182 183 184 184 183 185 187 183 187 182 180 174 174 179 171 172 165 176 173 168 173 174 186 183 193 157 210 230 259 275 240 314 309 302 310 271 152 107 29 354 346
194 189 187 185 189 189 182 181 181 184 184 187 189 186 184 183 180 179 167 169 172 171 168 175 174 209 215 169 209 189 267 269 269 199 305 326 334 303 279 204 105 4 344
196 186 188 187 186 183 182 176 175 181 184 191 189 194 195 186 177 176 165 178 167 179 171 171 177 188 205 172 206 195 269 266 287 287 262 258 249 263 281 295 303 280 332
192 185 184 178 175 172 172 170 172 178 182 189 191 195 194 193 183 181 177 188 177 174 171 177 182 194 183 175 196 235 219 277 299 296 294 284 292 290 289 284 287 303 327
201 190 177 171 175 174 173 166 168 178 181 186 190 192 194 196 195 193 186 195 184 176 174 188 194 195 183 190 198 212 244 238 258 270 285 302 296 302 296 297 300 302 297
201 202 185 175 175 175 174 168 170 178 182 185 188 193 198 198 195 201 203 195 196 180 171 191 197 201 199 201 200 219 216 211 241 257 281 275 276 287 289 296 295 289 282
197 193 172 172 171 175 176 171 169 172 180 184 187 192 199 204 199 195 207 201 196 190 182 192 197 201 203 210 213 225 229 219 235 240 238 262 271 263 275 282 290 296 298
175 159 154 155 165 170 170 169 171 175 180 186 193 188 191 191 201 212 202 208 206 201 198 196 198 201 201 206 218 219 216 232 244 264 275 275 273 284 277 282 287 291 295
172 159 152 148 157 164 167 165 170 178 184 191 198 195 195 194 198 205 207 203 205 205 208 208 208 207 207 206 214 227 219 232 241 253 250 259 284 285 284 280 282 285 289
157 148 141 141 149 159 171 169 174 183 191 196 198 196 202 203 203 205 209 207 206 210 211 214 215 216 210 211 217 225 223 231 239 246 254 259 259 266 277 283 284 286 291
150 142 133 136 153 169 176 175 187 190 192 196 200 201 208 209 209 209 210 211 211 214 214 215 217 221 219 216 222 226 229 233 236 242 250 255 257 261 266 272 274 274 271
175 169 157 133 114 131 187 188 203 204 202 200 204 213 217 218 216 213 212 214 215 218 216 216 219 220 220 219 221 225 229 233 234 239 248 254 255 260 265 262 265 270 276
229 212 196 156 152 169 183 197 221 219 211 208 209 218 223 224 220 212 211 211 213 218 218 218 219 218 217 217 227 228 226 227 233 238 245 252 262 280 274 280 279 273 271
265 255 229 192 196 201 208 211 219 220 227 224 223 222 225 225 220 213 209 210 212 216 217 217 214 215 211 149 224 253 236 232 234 241 250 249 229 237 239 251 263 272 269
264 267 272 240 239 238 228 218 205 199 226 243 243 227 222 221 221 218 207 205 207 209 212 218 216 218 189 158 198 238 246 238 236 240 248 260 265 255 266 248 241 246 246
275 283 271 240 233 235 228 224 203 195 210 224 235 242 233 219 214 216 212 208 208 211 213 217 216 216 190 167 199 228 233 239 237 240 248 257 270 277 283 274 266 264 257
299 293 277 243 218 224 219 215 205 200 209 221 232 235 234 223 215 218 221 214 206 208 212 213 215 214 189 178 201 227 232 231 237 240 242 251 258 273 275 264 266 271 271
328 303 281 239 218 229 218 210 204 201 216 227 231 229 228 227 225 225 226 222 211 210 213 209 214 213 208 182 194 226 239 237 238 230 226 212 252 270 230 257 263 264 270
331 313 283 259 229 223 210 207 210 208 217 225 224 224 225 228 223 220 221 222 217 208 209 205 208 212 216 187 189 216 243 251 251 249 244 214 175 223 233 255 267 274 281
329 313 294 292 284 244 225 219 225 218 212 215 222 226 228 235 218 213 215 216 210 201 202 203 210 208 205 202 189 202 228 263 258 260 268 276 154 217 238 247 271 276 267
334 315 301 306 304 276 259 246 236 221 214 222 225 225 230 230 222 216 217 218 212 216 213 209 208 206 204 187 186 198 213 228 244 269 293 277 221 231 237 230 238 244 248
316 305 294 299 311 308 299 279 246 220 217 234 240 236 235 228 213 219 223 229 230 227 224 227 227 219 213 210 199 201 202 206 221 246 238 214 215 229 252 250 225 236 253
300 290 283 290 290 296 305 301 283 230 226 233 237 237 238 237 226 223 233 246 253 272 263 261 257 247 239 166 6 288 259 267 274 264 250 249 241 237 235 244 250 247 245
295 284 277 270 265 261 285 293 271 230 224 224 230 237 231 225 228 225 212 116 208 139 201 259 276 280 279 268 247 244 254 252 244 245 245 244 247 253 259 259 253 246 248